| time (UTC) | temp F | wind direction | speed MPH | gust MPH | rain 1hr in | rain 24hr in | rain mn in | humidity % | barometer mb |
| 20260505203137 | 84 | 274 | 2.0 | 2.0 | 0.00 | 0.00 | 0.00 | 71 | 1008.6 |
| 20260505202632 | 84 | 167 | 3.0 | 5.0 | 0.00 | 0.00 | 0.00 | 71 | 1008.6 |
| 20260505202128 | 83 | 198 | 3.0 | 3.0 | 0.00 | 0.00 | 0.00 | 72 | 1009.0 |
| 20260505201625 | 83 | 176 | 3.0 | 3.0 | 0.00 | 0.00 | 0.00 | 72 | 1008.6 |
| 20260505201123 | 83 | 184 | 2.0 | 2.0 | 0.00 | 0.00 | 0.00 | 72 | 1008.6 |
| 20260505200621 | 83 | 180 | 3.0 | 3.0 | 0.00 | 0.00 | 0.00 | 72 | 1009.0 |
| 20260505200118 | 83 | 214 | 3.0 | 3.0 | 0.00 | 0.00 | 0.00 | 71 | 1009.0 |
| 20260505195614 | 82 | 201 | 4.0 | 5.0 | 0.00 | 0.00 | 0.00 | 72 | 1009.0 |
| 20260505195111 | 83 | 177 | 2.0 | 3.0 | 0.00 | 0.00 | 0.00 | 72 | 1009.0 |
| 20260505194608 | 82 | 219 | 4.0 | 5.0 | 0.00 | 0.00 | 0.00 | 73 | 1009.0 |
| 20260505194104 | 81 | 214 | 3.0 | 3.0 | 0.00 | 0.00 | 0.00 | 73 | 1009.0 |
| 20260505193601 | 81 | 165 | 5.0 | 7.0 | 0.00 | 0.00 | 0.00 | 75 | 1009.3 |
| 20260505193058 | 80 | 237 | 2.0 | 2.0 | 0.00 | 0.00 | 0.00 | 76 | 1009.3 |
| 20260505192557 | 81 | 174 | 6.0 | 8.0 | 0.00 | 0.00 | 0.00 | 75 | 1009.3 |
| 20260505192054 | 81 | 207 | 2.0 | 2.0 | 0.00 | 0.00 | 0.00 | 75 | 1009.3 |
| 20260505191552 | 81 | 240 | 5.0 | 7.0 | 0.00 | 0.00 | 0.00 | 75 | 1009.3 |
| 20260505191050 | 81 | 225 | 5.0 | 8.0 | 0.00 | 0.00 | 0.00 | 75 | 1009.3 |
| 20260505190544 | 80 | 186 | 4.0 | 5.0 | 0.00 | 0.00 | 0.00 | 77 | 1009.6 |
| 20260505190040 | 80 | 196 | 5.0 | 7.0 | 0.00 | 0.00 | 0.00 | 76 | 1009.3 |
| 20260505185537 | 80 | 115 | 3.0 | 6.0 | 0.00 | 0.00 | 0.00 | 76 | 1009.6 |
| 20260505185034 | 80 | 224 | 5.0 | 6.0 | 0.00 | 0.00 | 0.00 | 77 | 1009.6 |
| 20260505184531 | 80 | 211 | 1.0 | 2.0 | 0.00 | 0.00 | 0.00 | 77 | 1009.6 |
| 20260505184027 | 79 | 220 | 3.0 | 3.0 | 0.00 | 0.00 | 0.00 | 78 | 1009.6 |
| 20260505183524 | 79 | 287 | 3.0 | 5.0 | 0.00 | 0.00 | 0.00 | 78 | 1010.0 |
| 20260505183022 | 79 | 193 | 3.0 | 3.0 | 0.00 | 0.00 | 0.00 | 77 | 1009.6 |
| 20260505182517 | 79 | 213 | 4.0 | 7.0 | 0.00 | 0.00 | 0.00 | 78 | 1010.0 |
| 20260505182014 | 78 | 232 | 3.0 | 6.0 | 0.00 | 0.00 | 0.00 | 79 | 1010.0 |
| 20260505181511 | 78 | 218 | 7.0 | 9.0 | 0.00 | 0.00 | 0.00 | 79 | 1010.0 |
| 20260505181009 | 78 | 235 | 3.0 | 5.0 | 0.00 | 0.00 | 0.00 | 81 | 1010.0 |
| 20260505180504 | 78 | 310 | 1.0 | 1.0 | 0.00 | 0.00 | 0.00 | 80 | 1010.3 |
| 20260505180002 | 77 | 197 | 4.0 | 5.0 | 0.00 | 0.00 | 0.00 | 81 | 1010.0 |
| 20260505175457 | 77 | 210 | 5.0 | 7.0 | 0.00 | 0.00 | 0.00 | 82 | 1010.0 |
| 20260505174954 | 77 | 201 | 4.0 | 6.0 | 0.00 | 0.00 | 0.00 | 82 | 1010.3 |
| 20260505174451 | 77 | 230 | 3.0 | 5.0 | 0.00 | 0.00 | 0.00 | 81 | 1010.3 |
| 20260505173947 | 77 | 250 | 4.0 | 6.0 | 0.00 | 0.00 | 0.00 | 81 | 1010.3 |
| 20260505173443 | 76 | 229 | 5.0 | 6.0 | 0.00 | 0.00 | 0.00 | 82 | 1010.3 |
| 20260505172941 | 76 | 229 | 5.0 | 7.0 | 0.00 | 0.00 | 0.00 | 82 | 1010.3 |
| 20260505172439 | 76 | 218 | 4.0 | 6.0 | 0.00 | 0.00 | 0.00 | 83 | 1010.3 |
| 20260505171938 | 76 | 207 | 5.0 | 6.0 | 0.00 | 0.00 | 0.00 | 83 | 1010.3 |
| 20260505171435 | 76 | 222 | 4.0 | 5.0 | 0.00 | 0.00 | 0.00 | 83 | 1010.3 |
| 20260505170932 | 76 | 204 | 6.0 | 7.0 | 0.00 | 0.00 | 0.00 | 82 | 1010.7 |
| 20260505170429 | 76 | 224 | 3.0 | 6.0 | 0.00 | 0.00 | 0.00 | 83 | 1010.7 |
| 20260505165924 | 76 | 213 | 2.0 | 2.0 | 0.00 | 0.00 | 0.00 | 83 | 1010.7 |
| 20260505165420 | 76 | 205 | 4.0 | 5.0 | 0.00 | 0.00 | 0.00 | 83 | 1010.3 |
| 20260505164915 | 76 | 258 | 3.0 | 5.0 | 0.00 | 0.00 | 0.00 | 84 | 1010.7 |
| 20260505164413 | 75 | 254 | 4.0 | 5.0 | 0.00 | 0.00 | 0.00 | 84 | 1010.3 |
| 20260505163911 | 75 | 202 | 5.0 | 6.0 | 0.00 | 0.00 | 0.00 | 85 | 1010.3 |
| 20260505163410 | 74 | 211 | 4.0 | 5.0 | 0.00 | 0.00 | 0.00 | 86 | 1010.7 |
| 20260505162908 | 74 | 274 | 2.0 | 3.0 | 0.00 | 0.00 | 0.00 | 86 | 1010.3 |
| 20260505162403 | 74 | 217 | 5.0 | 7.0 | 0.00 | 0.00 | 0.00 | 87 | 1010.7 |
| 20260505161901 | 74 | 225 | 4.0 | 6.0 | 0.00 | 0.00 | 0.00 | 88 | 1010.7 |
| 20260505161357 | 73 | 249 | 1.0 | 3.0 | 0.00 | 0.00 | 0.00 | 88 | 1010.3 |
| 20260505160854 | 73 | 176 | 2.0 | 3.0 | 0.00 | 0.00 | 0.00 | 89 | 1010.7 |
| 20260505160353 | 73 | 208 | 3.0 | 3.0 | 0.00 | 0.00 | 0.00 | 89 | 1010.3 |
| 20260505153331 | 73 | 250 | 6.0 | 7.0 | 0.00 | 0.00 | 0.00 | 89 | 1010.7 |
| 20260505152828 | 73 | 255 | 2.0 | 3.0 | 0.00 | 0.00 | 0.00 | 90 | 1010.7 |
| 20260505152325 | 73 | 205 | 3.0 | 5.0 | 0.00 | 0.00 | 0.00 | 90 | 1010.7 |
| 20260505151820 | 73 | 215 | 3.0 | 3.0 | 0.00 | 0.00 | 0.00 | 90 | 1010.3 |
| 20260505151317 | 72 | 273 | 3.0 | 5.0 | 0.00 | 0.00 | 0.00 | 90 | 1010.3 |
| 20260505150814 | 72 | 69 | 3.0 | 5.0 | 0.00 | 0.00 | 0.00 | 91 | 1010.3 |
| 20260505150311 | 72 | 226 | 2.0 | 3.0 | 0.00 | 0.00 | 0.00 | 91 | 1010.3 |
| 20260505140235 | 72 | 281 | 4.0 | 5.0 | 0.00 | 0.00 | 0.00 | 91 | 1010.0 |
| 20260505130159 | 71 | 217 | 2.0 | 3.0 | 0.00 | 0.00 | 0.00 | 91 | 1009.6 |
| 20260505124649 | 71 | 154 | 5.0 | 7.0 | 0.00 | 0.00 | 0.00 | 91 | 1009.6 |
| 20260505124145 | 71 | 178 | 4.0 | 5.0 | 0.00 | 0.00 | 0.00 | 91 | 1009.3 |
| 20260505123641 | 71 | 199 | 1.0 | 2.0 | 0.00 | 0.00 | 0.00 | 91 | 1009.3 |
| 20260505123138 | 71 | 229 | 3.0 | 5.0 | 0.00 | 0.00 | 0.00 | 91 | 1009.3 |
| 20260505122635 | 71 | 238 | 3.0 | 3.0 | 0.00 | 0.00 | 0.00 | 91 | 1009.3 |
| 20260505122132 | 71 | 196 | 3.0 | 6.0 | 0.00 | 0.00 | 0.00 | 90 | 1009.0 |
| 20260505121629 | 71 | 167 | 3.0 | 5.0 | 0.00 | 0.00 | 0.00 | 90 | 1009.3 |
| 20260505121125 | 71 | 197 | 4.0 | 5.0 | 0.00 | 0.00 | 0.00 | 91 | 1009.3 |
| 20260505120621 | 71 | 227 | 3.0 | 5.0 | 0.00 | 0.00 | 0.00 | 91 | 1009.0 |
| 20260505120117 | 71 | 232 | 2.0 | 2.0 | 0.00 | 0.00 | 0.00 | 90 | 1008.6 |
| 20260505115612 | 71 | 201 | 5.0 | 6.0 | 0.00 | 0.00 | 0.00 | 90 | 1009.0 |
| 20260505115110 | 71 | 208 | 3.0 | 5.0 | 0.00 | 0.00 | 0.00 | 90 | 1009.0 |
| 20260505114606 | 71 | 184 | 7.0 | 9.0 | 0.00 | 0.00 | 0.00 | 90 | 1009.0 |
| 20260505114103 | 71 | 158 | 3.0 | 3.0 | 0.00 | 0.00 | 0.00 | 89 | 1008.6 |
| 20260505113559 | 71 | 234 | 7.0 | 9.0 | 0.00 | 0.00 | 0.00 | 89 | 1009.0 |
| 20260505113056 | 71 | 200 | 3.0 | 5.0 | 0.00 | 0.00 | 0.00 | 89 | 1009.0 |
| 20260505112552 | 71 | 129 | 5.0 | 7.0 | 0.00 | 0.00 | 0.00 | 88 | 1009.0 |
| 20260505112050 | 71 | 221 | 5.0 | 8.0 | 0.00 | 0.00 | 0.00 | 88 | 1009.0 |
| 20260505111544 | 71 | 173 | 4.0 | 5.0 | 0.00 | 0.00 | 0.00 | 88 | 1009.0 |
| 20260505111040 | 71 | 178 | 5.0 | 7.0 | 0.00 | 0.00 | 0.00 | 88 | 1009.3 |
| 20260505110537 | 71 | 201 | 2.0 | 3.0 | 0.00 | 0.00 | 0.00 | 88 | 1009.3 |
| 20260505102009 | 70 | 176 | 4.0 | 6.0 | 0.00 | 0.00 | 0.00 | 89 | 1009.0 |
| 20260505101508 | 70 | 215 | 0.0 | 0.0 | 0.00 | 0.00 | 0.00 | 89 | 1009.3 |
| 20260505101004 | 70 | 127 | 2.0 | 2.0 | 0.00 | 0.00 | 0.00 | 89 | 1009.3 |
| 20260505100501 | 70 | 217 | 4.0 | 5.0 | 0.00 | 0.00 | 0.00 | 89 | 1009.3 |
| 20260505095957 | 70 | 259 | 4.0 | 6.0 | 0.00 | 0.00 | 0.00 | 88 | 1009.0 |
| 20260505095454 | 70 | 226 | 5.0 | 7.0 | 0.00 | 0.00 | 0.00 | 88 | 1009.0 |
| 20260505094950 | 70 | 214 | 5.0 | 7.0 | 0.00 | 0.00 | 0.00 | 88 | 1009.0 |
| 20260505094447 | 70 | 144 | 4.0 | 5.0 | 0.00 | 0.00 | 0.00 | 88 | 1009.0 |
| 20260505093943 | 70 | 252 | 4.0 | 6.0 | 0.00 | 0.00 | 0.00 | 88 | 1009.3 |
| 20260505093440 | 70 | 223 | 4.0 | 7.0 | 0.00 | 0.00 | 0.00 | 88 | 1009.3 |
| 20260505092937 | 70 | 193 | 5.0 | 8.0 | 0.00 | 0.00 | 0.00 | 88 | 1009.0 |
| 20260505092435 | 70 | 164 | 4.0 | 6.0 | 0.00 | 0.00 | 0.00 | 88 | 1009.0 |
| 20260505091932 | 70 | 232 | 5.0 | 7.0 | 0.00 | 0.00 | 0.00 | 88 | 1009.3 |
| 20260505091430 | 71 | 184 | 4.0 | 6.0 | 0.00 | 0.00 | 0.00 | 88 | 1009.3 |
| 20260505090928 | 70 | 207 | 6.0 | 7.0 | 0.00 | 0.00 | 0.00 | 88 | 1009.3 |
| 20260505090426 | 70 | 261 | 0.0 | 1.0 | 0.00 | 0.00 | 0.00 | 88 | 1009.3 |
| 20260505085922 | 70 | 208 | 4.0 | 5.0 | 0.00 | 0.00 | 0.00 | 88 | 1009.6 |
| 20260505085420 | 70 | 201 | 4.0 | 7.0 | 0.00 | 0.00 | 0.00 | 88 | 1009.0 |
| 20260505084918 | 70 | 216 | 3.0 | 5.0 | 0.00 | 0.00 | 0.00 | 88 | 1009.0 |
| 20260505084416 | 70 | 209 | 5.0 | 7.0 | 0.00 | 0.00 | 0.00 | 88 | 1009.3 |
| 20260505083914 | 71 | 208 | 4.0 | 7.0 | 0.00 | 0.00 | 0.00 | 88 | 1009.3 |
| 20260505083411 | 71 | 145 | 4.0 | 6.0 | 0.00 | 0.00 | 0.00 | 88 | 1009.6 |
| 20260505082907 | 71 | 146 | 4.0 | 6.0 | 0.00 | 0.00 | 0.00 | 88 | 1010.0 |
| 20260505082403 | 71 | 153 | 4.0 | 6.0 | 0.00 | 0.00 | 0.00 | 88 | 1010.0 |
| 20260505081900 | 71 | 214 | 5.0 | 6.0 | 0.00 | 0.00 | 0.00 | 88 | 1009.6 |
| 20260505081357 | 71 | 187 | 4.0 | 6.0 | 0.00 | 0.00 | 0.00 | 88 | 1009.6 |
| 20260505080854 | 71 | 193 | 4.0 | 7.0 | 0.00 | 0.00 | 0.00 | 88 | 1010.0 |
| 20260505080350 | 71 | 208 | 8.0 | 10.0 | 0.00 | 0.00 | 0.00 | 88 | 1010.0 |
| 20260505075845 | 71 | 240 | 3.0 | 5.0 | 0.00 | 0.00 | 0.00 | 88 | 1009.6 |
| 20260505075342 | 71 | 222 | 7.0 | 11.0 | 0.00 | 0.00 | 0.00 | 87 | 1010.0 |
| 20260505074840 | 71 | 232 | 6.0 | 9.0 | 0.00 | 0.00 | 0.00 | 87 | 1010.0 |
| 20260505074337 | 71 | 211 | 5.0 | 8.0 | 0.00 | 0.00 | 0.00 | 87 | 1010.3 |
| 20260505073834 | 71 | 196 | 2.0 | 2.0 | 0.00 | 0.00 | 0.00 | 87 | 1010.0 |
| 20260505073332 | 71 | 210 | 3.0 | 5.0 | 0.00 | 0.00 | 0.00 | 87 | 1010.0 |
| 20260505072829 | 71 | 191 | 6.0 | 7.0 | 0.00 | 0.00 | 0.00 | 87 | 1010.0 |
| 20260505072325 | 71 | 148 | 3.0 | 5.0 | 0.00 | 0.00 | 0.00 | 87 | 1010.3 |
| 20260505071821 | 71 | 163 | 6.0 | 9.0 | 0.00 | 0.00 | 0.00 | 87 | 1010.3 |
| 20260505071317 | 71 | 144 | 9.0 | 13.0 | 0.00 | 0.00 | 0.00 | 87 | 1010.3 |
| 20260505070816 | 71 | 218 | 7.0 | 8.0 | 0.00 | 0.00 | 0.00 | 87 | 1010.7 |
| 20260505070312 | 71 | 208 | 2.0 | 3.0 | 0.00 | 0.00 | 0.00 | 87 | 1010.7 |
| 20260505065807 | 71 | 199 | 5.0 | 7.0 | 0.00 | 0.00 | 0.00 | 87 | 1010.7 |
| 20260505065304 | 71 | 240 | 4.0 | 6.0 | 0.00 | 0.00 | 0.00 | 87 | 1010.7 |
| 20260505064801 | 71 | 259 | 6.0 | 8.0 | 0.00 | 0.00 | 0.00 | 87 | 1010.7 |
| 20260505064258 | 71 | 224 | 5.0 | 9.0 | 0.00 | 0.00 | 0.00 | 87 | 1010.7 |
| 20260505063756 | 71 | 253 | 3.0 | 5.0 | 0.00 | 0.00 | 0.00 | 87 | 1010.7 |
| 20260505063252 | 71 | 201 | 2.0 | 3.0 | 0.00 | 0.00 | 0.00 | 87 | 1010.7 |
| 20260505062749 | 71 | 213 | 1.0 | 2.0 | 0.00 | 0.00 | 0.00 | 87 | 1010.7 |
| 20260505062246 | 71 | 198 | 3.0 | 3.0 | 0.00 | 0.00 | 0.00 | 87 | 1011.0 |
| 20260505061743 | 71 | 164 | 3.0 | 5.0 | 0.00 | 0.00 | 0.00 | 86 | 1010.7 |
| 20260505061241 | 71 | 194 | 7.0 | 9.0 | 0.00 | 0.00 | 0.00 | 86 | 1011.0 |
| 20260505060738 | 71 | 160 | 3.0 | 5.0 | 0.00 | 0.00 | 0.00 | 86 | 1011.0 |
| 20260505060235 | 71 | 240 | 7.0 | 9.0 | 0.00 | 0.00 | 0.00 | 86 | 1011.0 |
| 20260505055730 | 71 | 151 | 3.0 | 5.0 | 0.00 | 0.00 | 0.00 | 86 | 1011.0 |
| 20260505055227 | 71 | 190 | 3.0 | 5.0 | 0.00 | 0.00 | 0.00 | 86 | 1011.0 |
| 20260505054724 | 71 | 189 | 3.0 | 3.0 | 0.00 | 0.00 | 0.00 | 86 | 1011.3 |
| 20260505054222 | 71 | 153 | 2.0 | 3.0 | 0.00 | 0.00 | 0.00 | 85 | 1011.3 |
| 20260505053720 | 71 | 157 | 6.0 | 8.0 | 0.00 | 0.00 | 0.00 | 85 | 1011.0 |
| 20260505053216 | 71 | 177 | 4.0 | 5.0 | 0.00 | 0.00 | 0.00 | 85 | 1011.0 |
| 20260505052714 | 71 | 223 | 5.0 | 7.0 | 0.00 | 0.00 | 0.00 | 85 | 1011.0 |
| 20260505052210 | 71 | 131 | 4.0 | 6.0 | 0.00 | 0.00 | 0.00 | 85 | 1011.0 |
| 20260505051708 | 71 | 154 | 7.0 | 9.0 | 0.00 | 0.00 | 0.00 | 85 | 1011.0 |
| 20260505051206 | 71 | 228 | 5.0 | 7.0 | 0.00 | 0.00 | 0.00 | 85 | 1010.7 |
| 20260505050703 | 71 | 222 | 2.0 | 2.0 | 0.00 | 0.00 | 0.00 | 85 | 1011.0 |
| 20260505050201 | 71 | 206 | 3.0 | 5.0 | 0.00 | 0.00 | 0.00 | 85 | 1011.0 |
| 20260505041631 | 72 | 241 | 3.0 | 3.0 | 0.00 | 0.00 | 0.00 | 83 | 1011.0 |
| 20260505041128 | 72 | 214 | 5.0 | 6.0 | 0.00 | 0.00 | 0.00 | 83 | 1011.0 |
| 20260505040625 | 72 | 117 | 4.0 | 6.0 | 0.00 | 0.00 | 0.00 | 83 | 1010.7 |
| 20260505040122 | 72 | 195 | 4.0 | 5.0 | 0.00 | 0.00 | 0.00 | 83 | 1011.3 |
| 20260505035619 | 73 | 186 | 1.0 | 2.0 | 0.00 | 0.00 | 0.00 | 82 | 1011.0 |
| 20260505035115 | 73 | 243 | 2.0 | 3.0 | 0.00 | 0.00 | 0.00 | 82 | 1010.7 |
| 20260505034612 | 73 | 178 | 3.0 | 5.0 | 0.00 | 0.00 | 0.00 | 82 | 1010.7 |
| 20260505034109 | 73 | 222 | 2.0 | 3.0 | 0.00 | 0.00 | 0.00 | 81 | 1010.7 |
| 20260505033605 | 73 | 204 | 2.0 | 5.0 | 0.00 | 0.00 | 0.00 | 80 | 1011.0 |
| 20260505033104 | 74 | 188 | 4.0 | 5.0 | 0.00 | 0.00 | 0.00 | 80 | 1010.7 |
| 20260505032601 | 74 | 180 | 4.0 | 5.0 | 0.00 | 0.00 | 0.00 | 79 | 1010.7 |
| 20260505032057 | 74 | 184 | 1.0 | 2.0 | 0.00 | 0.00 | 0.00 | 79 | 1011.0 |
| 20260505031555 | 74 | 193 | 2.0 | 3.0 | 0.00 | 0.00 | 0.00 | 79 | 1010.7 |
| 20260505031051 | 74 | 157 | 1.0 | 2.0 | 0.00 | 0.00 | 0.00 | 79 | 1010.7 |
| 20260505030548 | 74 | 189 | 2.0 | 3.0 | 0.00 | 0.00 | 0.00 | 78 | 1010.7 |
| 20260505030044 | 75 | 232 | 1.0 | 2.0 | 0.00 | 0.00 | 0.00 | 78 | 1011.3 |
| 20260505025540 | 75 | 202 | 3.0 | 3.0 | 0.00 | 0.00 | 0.00 | 77 | 1010.7 |
| 20260505025039 | 75 | 209 | 5.0 | 6.0 | 0.00 | 0.00 | 0.00 | 77 | 1011.0 |
| 20260505024536 | 75 | 192 | 5.0 | 6.0 | 0.00 | 0.00 | 0.00 | 77 | 1011.0 |
| 20260505024033 | 75 | 177 | 5.0 | 9.0 | 0.00 | 0.00 | 0.00 | 77 | 1010.7 |
| 20260505023530 | 75 | 232 | 3.0 | 3.0 | 0.00 | 0.00 | 0.00 | 76 | 1010.7 |
| 20260505023027 | 75 | 218 | 1.0 | 2.0 | 0.00 | 0.00 | 0.00 | 76 | 1010.7 |
| 20260505022525 | 75 | 189 | 6.0 | 8.0 | 0.00 | 0.00 | 0.00 | 76 | 1010.7 |
| 20260505022022 | 75 | 184 | 3.0 | 3.0 | 0.00 | 0.00 | 0.00 | 75 | 1010.7 |
| 20260505021518 | 76 | 174 | 5.0 | 7.0 | 0.00 | 0.00 | 0.00 | 75 | 1010.7 |
| 20260505021014 | 76 | 190 | 1.0 | 2.0 | 0.00 | 0.00 | 0.00 | 75 | 1010.7 |
| 20260505020509 | 76 | 244 | 1.0 | 2.0 | 0.00 | 0.00 | 0.00 | 74 | 1010.7 |
| 20260505020006 | 76 | 207 | 4.0 | 7.0 | 0.00 | 0.00 | 0.00 | 74 | 1010.7 |
| 20260505015503 | 76 | 230 | 6.0 | 7.0 | 0.00 | 0.00 | 0.00 | 73 | 1010.7 |
| 20260505015000 | 76 | 254 | 3.0 | 5.0 | 0.00 | 0.00 | 0.00 | 73 | 1010.7 |
| 20260505014457 | 77 | 134 | 2.0 | 3.0 | 0.00 | 0.00 | 0.00 | 72 | 1010.3 |
| 20260505013954 | 77 | 210 | 2.0 | 2.0 | 0.00 | 0.00 | 0.00 | 72 | 1010.7 |
| 20260505013451 | 77 | 204 | 2.0 | 2.0 | 0.00 | 0.00 | 0.00 | 71 | 1010.7 |
| 20260505012949 | 77 | 190 | 2.0 | 3.0 | 0.00 | 0.00 | 0.00 | 70 | 1010.3 |
| 20260505012447 | 77 | 192 | 3.0 | 6.0 | 0.00 | 0.00 | 0.00 | 70 | 1010.7 |
| 20260505011943 | 77 | 216 | 5.0 | 7.0 | 0.00 | 0.00 | 0.00 | 69 | 1010.3 |
| 20260505011439 | 78 | 182 | 2.0 | 2.0 | 0.00 | 0.00 | 0.00 | 69 | 1010.0 |
| 20260505010936 | 78 | 174 | 3.0 | 5.0 | 0.00 | 0.00 | 0.00 | 68 | 1010.0 |
| 20260505010432 | 78 | 187 | 1.0 | 2.0 | 0.00 | 0.00 | 0.00 | 68 | 1010.3 |
| 20260505005928 | 78 | 216 | 4.0 | 5.0 | 0.00 | 0.00 | 0.00 | 67 | 1010.0 |
| 20260505005425 | 78 | 141 | 3.0 | 5.0 | 0.00 | 0.00 | 0.00 | 67 | 1010.3 |
| 20260505004923 | 79 | 171 | 2.0 | 2.0 | 0.00 | 0.00 | 0.00 | 66 | 1010.3 |
| 20260505004419 | 79 | 159 | 3.0 | 3.0 | 0.00 | 0.00 | 0.00 | 65 | 1010.3 |
| 20260505003916 | 79 | 178 | 5.0 | 7.0 | 0.00 | 0.00 | 0.00 | 65 | 1010.3 |
| 20260505003413 | 79 | 174 | 3.0 | 5.0 | 0.00 | 0.00 | 0.00 | 64 | 1010.0 |
| 20260505002909 | 80 | 162 | 1.0 | 1.0 | 0.00 | 0.00 | 0.00 | 64 | 1010.0 |
| 20260505002406 | 80 | 172 | 3.0 | 5.0 | 0.00 | 0.00 | 0.00 | 63 | 1010.0 |
| 20260505001904 | 80 | 151 | 5.0 | 7.0 | 0.00 | 0.00 | 0.00 | 63 | 1010.0 |
| 20260505001401 | 80 | 224 | 4.0 | 6.0 | 0.00 | 0.00 | 0.00 | 63 | 1010.0 |
| 20260505000859 | 80 | 202 | 5.0 | 7.0 | 0.00 | 0.00 | 0.00 | 62 | 1010.3 |
| 20260505000358 | 80 | 190 | 5.0 | 7.0 | 0.00 | 0.00 | 0.00 | 62 | 1010.3 |
| 20260504235853 | 80 | 234 | 6.0 | 8.0 | 0.00 | 0.00 | 0.00 | 61 | 1010.3 |
| 20260504235350 | 80 | 169 | 5.0 | 6.0 | 0.00 | 0.00 | 0.00 | 61 | 1010.3 |
| 20260504234846 | 81 | 209 | 5.0 | 7.0 | 0.00 | 0.00 | 0.00 | 61 | 1010.3 |
| 20260504234344 | 81 | 220 | 7.0 | 8.0 | 0.00 | 0.00 | 0.00 | 60 | 1010.3 |
| 20260504233840 | 80 | 170 | 3.0 | 5.0 | 0.00 | 0.00 | 0.00 | 61 | 1010.7 |
| 20260504233336 | 80 | 182 | 7.0 | 8.0 | 0.00 | 0.00 | 0.00 | 61 | 1010.7 |
| 20260504232833 | 81 | 253 | 3.0 | 5.0 | 0.00 | 0.00 | 0.00 | 60 | 1010.3 |
| 20260504232330 | 81 | 216 | 7.0 | 8.0 | 0.00 | 0.00 | 0.00 | 60 | 1010.7 |
| 20260504231827 | 81 | 172 | 5.0 | 7.0 | 0.00 | 0.00 | 0.00 | 59 | 1010.7 |
| 20260504231323 | 81 | 100 | 2.0 | 3.0 | 0.00 | 0.00 | 0.00 | 60 | 1010.7 |
| 20260504230819 | 81 | 213 | 3.0 | 5.0 | 0.00 | 0.00 | 0.00 | 59 | 1011.0 |
| 20260504230318 | 81 | 179 | 4.0 | 6.0 | 0.00 | 0.00 | 0.00 | 59 | 1010.7 |
| 20260504225816 | 81 | 207 | 5.0 | 6.0 | 0.00 | 0.00 | 0.00 | 59 | 1011.0 |
| 20260504225312 | 81 | 203 | 4.0 | 5.0 | 0.00 | 0.00 | 0.00 | 59 | 1011.0 |
| 20260504224809 | 81 | 104 | 7.0 | 9.0 | 0.00 | 0.00 | 0.00 | 59 | 1010.7 |
| 20260504224306 | 81 | 249 | 7.0 | 10.0 | 0.00 | 0.00 | 0.00 | 58 | 1011.0 |
| 20260504223803 | 81 | 180 | 7.0 | 8.0 | 0.00 | 0.00 | 0.00 | 59 | 1011.0 |
| 20260504223258 | 82 | 226 | 7.0 | 9.0 | 0.00 | 0.00 | 0.00 | 59 | 1011.0 |
| 20260504222755 | 82 | 236 | 6.0 | 8.0 | 0.00 | 0.00 | 0.00 | 58 | 1011.0 |
| 20260504222252 | 82 | 150 | 4.0 | 6.0 | 0.00 | 0.00 | 0.00 | 58 | 1011.0 |
| 20260504221750 | 82 | 217 | 4.0 | 5.0 | 0.00 | 0.00 | 0.00 | 59 | 1011.3 |
| 20260504221247 | 82 | 202 | 3.0 | 3.0 | 0.00 | 0.00 | 0.00 | 58 | 1011.3 |
| 20260504220743 | 83 | 264 | 4.0 | 5.0 | 0.00 | 0.00 | 0.00 | 57 | 1011.3 |
| 20260504220241 | 82 | 195 | 5.0 | 7.0 | 0.00 | 0.00 | 0.00 | 58 | 1011.3 |
| 20260504215738 | 82 | 228 | 7.0 | 9.0 | 0.00 | 0.00 | 0.00 | 58 | 1011.3 |
| 20260504215234 | 82 | 187 | 4.0 | 5.0 | 0.00 | 0.00 | 0.00 | 58 | 1011.3 |
| 20260504214730 | 82 | 176 | 3.0 | 5.0 | 0.00 | 0.00 | 0.00 | 59 | 1011.3 |
| 20260504214227 | 82 | 227 | 5.0 | 6.0 | 0.00 | 0.00 | 0.00 | 58 | 1011.7 |
| 20260504213724 | 82 | 174 | 4.0 | 7.0 | 0.00 | 0.00 | 0.00 | 58 | 1011.7 |
| 20260504213220 | 82 | 293 | 5.0 | 7.0 | 0.00 | 0.00 | 0.00 | 59 | 1011.7 |
| 20260504212717 | 82 | 205 | 3.0 | 3.0 | 0.00 | 0.00 | 0.00 | 58 | 1011.7 |
| 20260504212214 | 82 | 215 | 7.0 | 9.0 | 0.00 | 0.00 | 0.00 | 57 | 1011.7 |
| 20260504211711 | 82 | 188 | 7.0 | 10.0 | 0.00 | 0.00 | 0.00 | 58 | 1011.7 |
| 20260504211207 | 82 | 196 | 3.0 | 5.0 | 0.00 | 0.00 | 0.00 | 58 | 1012.0 |
| 20260504210705 | 82 | 216 | 3.0 | 5.0 | 0.00 | 0.00 | 0.00 | 58 | 1012.4 |
| 20260504210201 | 82 | 226 | 3.0 | 5.0 | 0.00 | 0.00 | 0.00 | 58 | 1012.0 |
| 20260504205659 | 83 | 165 | 6.0 | 9.0 | 0.00 | 0.00 | 0.00 | 57 | 1012.0 |
| 20260504205156 | 82 | 215 | 4.0 | 6.0 | 0.00 | 0.00 | 0.00 | 57 | 1012.0 |
| 20260504204654 | 82 | 156 | 3.0 | 6.0 | 0.00 | 0.00 | 0.00 | 58 | 1012.0 |
| 20260504204153 | 82 | 151 | 9.0 | 13.0 | 0.00 | 0.00 | 0.00 | 57 | 1012.4 |
| 20260504203651 | 82 | 161 | 6.0 | 8.0 | 0.00 | 0.00 | 0.00 | 57 | 1012.4 |